Year,Month,Day,Hour,Minute,Value (Times are PST for temperature in C)
2020,05,05,00,00,10.50
2020,05,05,00,01,10.50
2020,05,05,00,02,10.50
2020,05,05,00,03,10.50
2020,05,05,00,04,10.60
2020,05,05,00,05,10.60
2020,05,05,00,06,10.60
2020,05,05,00,07,10.60
2020,05,05,00,08,10.50
2020,05,05,00,09,10.50
2020,05,05,00,10,10.50
2020,05,05,00,11,10.50
2020,05,05,00,12,10.50
2020,05,05,00,13,10.40
2020,05,05,00,14,10.40
2020,05,05,00,15,10.30
2020,05,05,00,16,10.30
2020,05,05,00,17,10.30
2020,05,05,00,18,10.20
2020,05,05,00,19,10.20
2020,05,05,00,20,10.20
2020,05,05,00,21,10.10
2020,05,05,00,22,10.10
2020,05,05,00,23,10.00
2020,05,05,00,24,9.90
2020,05,05,00,25,9.90
2020,05,05,00,26,9.90
2020,05,05,00,27,9.80
2020,05,05,00,28,9.80
2020,05,05,00,29,9.80
2020,05,05,00,30,9.80
2020,05,05,00,31,9.80
2020,05,05,00,32,9.80
2020,05,05,00,33,9.70
2020,05,05,00,34,9.70
2020,05,05,00,35,9.70
2020,05,05,00,36,9.70
2020,05,05,00,37,9.70
2020,05,05,00,38,9.70
2020,05,05,00,39,9.60
2020,05,05,00,40,9.60
2020,05,05,00,41,9.60
2020,05,05,00,42,9.60
2020,05,05,00,43,9.60
2020,05,05,00,44,9.60
2020,05,05,00,45,9.60
2020,05,05,00,46,9.60
2020,05,05,00,47,9.60
2020,05,05,00,48,9.60
2020,05,05,00,49,9.60
2020,05,05,00,50,9.60
2020,05,05,00,51,9.60
2020,05,05,00,52,9.60
2020,05,05,00,53,9.60
2020,05,05,00,54,9.60
2020,05,05,00,55,9.60
2020,05,05,00,56,9.60
2020,05,05,00,57,9.60
2020,05,05,00,58,9.60
2020,05,05,00,59,9.60
2020,05,05,01,00,9.50
2020,05,05,01,01,9.50
2020,05,05,01,02,9.50
2020,05,05,01,03,9.50
2020,05,05,01,04,9.40
2020,05,05,01,05,9.40
2020,05,05,01,06,9.40
2020,05,05,01,07,9.40
2020,05,05,01,08,9.40
2020,05,05,01,09,9.40
2020,05,05,01,10,9.40
2020,05,05,01,11,9.40
2020,05,05,01,12,9.40
2020,05,05,01,13,9.40
2020,05,05,01,14,9.40
2020,05,05,01,15,9.40
2020,05,05,01,16,9.40
2020,05,05,01,17,9.40
2020,05,05,01,18,9.40
2020,05,05,01,19,9.40
2020,05,05,01,20,9.40
2020,05,05,01,21,9.40
2020,05,05,01,22,9.40
2020,05,05,01,23,9.40
2020,05,05,01,24,9.40
2020,05,05,01,25,9.40
2020,05,05,01,26,9.40
2020,05,05,01,27,9.40
2020,05,05,01,28,9.40
2020,05,05,01,29,9.40
2020,05,05,01,30,9.40
2020,05,05,01,31,9.40
2020,05,05,01,32,9.40
2020,05,05,01,33,9.40
2020,05,05,01,34,9.50
2020,05,05,01,35,9.50
2020,05,05,01,36,9.50
2020,05,05,01,37,9.50
2020,05,05,01,38,9.40
2020,05,05,01,39,9.40
2020,05,05,01,40,9.40
2020,05,05,01,41,9.40
2020,05,05,01,42,9.40
2020,05,05,01,43,9.40
2020,05,05,01,44,9.30
2020,05,05,01,45,9.40
2020,05,05,01,46,9.40
2020,05,05,01,47,9.40
2020,05,05,01,48,9.40
2020,05,05,01,49,9.40
2020,05,05,01,50,9.40
2020,05,05,01,51,9.40
2020,05,05,01,52,9.40
2020,05,05,01,53,9.30
2020,05,05,01,54,9.40
2020,05,05,01,55,9.40
2020,05,05,01,56,9.40
2020,05,05,01,57,9.30
2020,05,05,01,58,9.30
2020,05,05,01,59,9.30
2020,05,05,02,00,9.30
2020,05,05,02,01,9.30
2020,05,05,02,02,9.30
2020,05,05,02,03,9.30
2020,05,05,02,04,9.20
2020,05,05,02,05,9.20
2020,05,05,02,06,9.20
2020,05,05,02,07,9.10
2020,05,05,02,08,9.10
2020,05,05,02,09,9.00
2020,05,05,02,10,8.90
2020,05,05,02,11,8.90
2020,05,05,02,12,8.90
2020,05,05,02,13,8.90
2020,05,05,02,14,8.80
2020,05,05,02,15,8.80
2020,05,05,02,16,8.80
2020,05,05,02,17,8.80
2020,05,05,02,18,8.80
2020,05,05,02,19,8.80
2020,05,05,02,20,8.80
2020,05,05,02,21,8.80
2020,05,05,02,22,8.80
2020,05,05,02,23,8.80
2020,05,05,02,24,8.70
2020,05,05,02,25,8.70
2020,05,05,02,26,8.70
2020,05,05,02,27,8.70
2020,05,05,02,28,8.70
2020,05,05,02,29,8.60
2020,05,05,02,30,8.60
2020,05,05,02,31,8.60
2020,05,05,02,32,8.50
2020,05,05,02,33,8.40
2020,05,05,02,34,8.40
2020,05,05,02,35,8.40
2020,05,05,02,36,8.40
2020,05,05,02,37,8.40
2020,05,05,02,38,8.40
2020,05,05,02,39,8.50
2020,05,05,02,40,8.50
2020,05,05,02,41,8.50
2020,05,05,02,42,8.50
2020,05,05,02,43,8.50
2020,05,05,02,44,8.50
2020,05,05,02,45,8.40
2020,05,05,02,46,8.40
2020,05,05,02,47,8.40
2020,05,05,02,48,8.40
2020,05,05,02,49,8.30
2020,05,05,02,50,8.30
2020,05,05,02,51,8.30
2020,05,05,02,52,8.30
2020,05,05,02,53,8.30
2020,05,05,02,54,8.20
2020,05,05,02,55,8.20
2020,05,05,02,56,8.20
2020,05,05,02,57,8.20
2020,05,05,02,58,8.10
2020,05,05,02,59,8.10
2020,05,05,03,00,8.10
2020,05,05,03,01,8.00
2020,05,05,03,02,8.00
2020,05,05,03,03,7.90
2020,05,05,03,04,7.90
2020,05,05,03,05,7.80
2020,05,05,03,06,7.80
2020,05,05,03,07,7.80
2020,05,05,03,08,7.80
2020,05,05,03,09,7.70
2020,05,05,03,10,7.70
2020,05,05,03,11,7.70
2020,05,05,03,12,7.60
2020,05,05,03,13,7.60
2020,05,05,03,14,7.60
2020,05,05,03,15,7.60
2020,05,05,03,16,7.60
2020,05,05,03,17,7.50
2020,05,05,03,18,7.50
2020,05,05,03,19,7.50
2020,05,05,03,20,7.50
2020,05,05,03,21,7.60
2020,05,05,03,22,7.60
2020,05,05,03,23,7.60
2020,05,05,03,24,7.60
2020,05,05,03,25,7.70
2020,05,05,03,26,7.70
2020,05,05,03,27,7.70
2020,05,05,03,28,7.70
2020,05,05,03,29,7.60
2020,05,05,03,30,7.60
2020,05,05,03,31,7.70
2020,05,05,03,32,7.70
2020,05,05,03,33,7.70
2020,05,05,03,34,7.70
2020,05,05,03,35,7.70
2020,05,05,03,36,7.70
2020,05,05,03,37,7.70
2020,05,05,03,38,7.70
2020,05,05,03,39,7.70
2020,05,05,03,40,7.70
2020,05,05,03,41,7.70
2020,05,05,03,42,7.70
2020,05,05,03,43,7.70
2020,05,05,03,44,7.70
2020,05,05,03,45,7.70
2020,05,05,03,46,7.70
2020,05,05,03,47,7.70
2020,05,05,03,48,7.70
2020,05,05,03,49,7.70
2020,05,05,03,50,7.70
2020,05,05,03,51,7.70
2020,05,05,03,52,7.80
2020,05,05,03,53,7.80
2020,05,05,03,54,7.80
2020,05,05,03,55,7.80
2020,05,05,03,56,7.80
2020,05,05,03,57,7.80
2020,05,05,03,58,7.80
2020,05,05,03,59,7.80
2020,05,05,04,00,7.80
2020,05,05,04,01,7.80
2020,05,05,04,02,7.80
2020,05,05,04,03,7.80
2020,05,05,04,04,7.70
2020,05,05,04,05,7.70
2020,05,05,04,06,7.70
2020,05,05,04,07,7.70
2020,05,05,04,08,7.70
2020,05,05,04,09,7.70
2020,05,05,04,10,7.70
2020,05,05,04,11,7.70
2020,05,05,04,12,7.70
2020,05,05,04,13,7.70
2020,05,05,04,14,7.70
2020,05,05,04,15,7.70
2020,05,05,04,16,7.70
2020,05,05,04,17,7.70
2020,05,05,04,18,7.70
2020,05,05,04,19,7.70
2020,05,05,04,20,7.70
2020,05,05,04,21,7.70
2020,05,05,04,22,7.70
2020,05,05,04,23,7.70
2020,05,05,04,24,7.70
2020,05,05,04,25,7.70
2020,05,05,04,26,7.70
2020,05,05,04,27,7.70
2020,05,05,04,28,7.70
2020,05,05,04,29,7.70
2020,05,05,04,30,7.70
2020,05,05,04,31,7.70
2020,05,05,04,32,7.70
2020,05,05,04,33,7.70
2020,05,05,04,34,7.70
2020,05,05,04,35,7.70
2020,05,05,04,36,7.70
2020,05,05,04,37,7.70
2020,05,05,04,38,7.70
2020,05,05,04,39,7.70
2020,05,05,04,40,7.70
2020,05,05,04,41,7.70
2020,05,05,04,42,7.70
2020,05,05,04,43,7.70
2020,05,05,04,44,7.70
2020,05,05,04,45,7.60
2020,05,05,04,46,7.60
2020,05,05,04,47,7.60
2020,05,05,04,48,7.50
2020,05,05,04,49,7.50
2020,05,05,04,50,7.50
2020,05,05,04,51,7.50
2020,05,05,04,52,7.50
2020,05,05,04,53,7.40
2020,05,05,04,54,7.40
2020,05,05,04,55,7.40
2020,05,05,04,56,7.30
2020,05,05,04,57,7.30
2020,05,05,04,58,7.30
2020,05,05,04,59,7.20
2020,05,05,05,00,7.20
2020,05,05,05,01,7.20
2020,05,05,05,02,7.20
2020,05,05,05,03,7.20
2020,05,05,05,04,7.10
2020,05,05,05,05,7.10
2020,05,05,05,06,7.10
2020,05,05,05,07,7.10
2020,05,05,05,08,7.10
2020,05,05,05,09,7.10
2020,05,05,05,10,7.10
2020,05,05,05,11,7.10
2020,05,05,05,12,7.00
2020,05,05,05,13,7.00
2020,05,05,05,14,6.90
2020,05,05,05,15,6.90
2020,05,05,05,16,6.90
2020,05,05,05,17,6.90
2020,05,05,05,18,6.80
2020,05,05,05,19,6.80
2020,05,05,05,20,6.80
2020,05,05,05,21,6.80
2020,05,05,05,22,6.80
2020,05,05,05,23,6.80
2020,05,05,05,24,6.80
2020,05,05,05,25,6.80
2020,05,05,05,26,6.80
2020,05,05,05,27,6.80
2020,05,05,05,28,6.80
2020,05,05,05,29,6.70
2020,05,05,05,30,6.70
2020,05,05,05,31,6.70
2020,05,05,05,32,6.70
2020,05,05,05,33,6.70
2020,05,05,05,34,6.60
2020,05,05,05,35,6.60
2020,05,05,05,36,6.60
2020,05,05,05,37,6.50
2020,05,05,05,38,6.50
2020,05,05,05,39,6.50
2020,05,05,05,40,6.50
2020,05,05,05,41,6.50
2020,05,05,05,42,6.50
2020,05,05,05,43,6.50
2020,05,05,05,44,6.50
2020,05,05,05,45,6.40
2020,05,05,05,46,6.40
2020,05,05,05,47,6.40
2020,05,05,05,48,6.40
2020,05,05,05,49,6.40
2020,05,05,05,50,6.40
2020,05,05,05,51,6.40
2020,05,05,05,52,6.40
2020,05,05,05,53,6.40
2020,05,05,05,54,6.40
2020,05,05,05,55,6.30
2020,05,05,05,56,6.30
2020,05,05,05,57,6.30
2020,05,05,05,58,6.30
2020,05,05,05,59,6.30
2020,05,05,06,00,6.30
2020,05,05,06,01,6.30
2020,05,05,06,02,6.30
2020,05,05,06,03,6.30
2020,05,05,06,04,6.30
2020,05,05,06,05,6.20
2020,05,05,06,06,6.20
2020,05,05,06,07,6.20
2020,05,05,06,08,6.20
2020,05,05,06,09,6.20
2020,05,05,06,10,6.20
2020,05,05,06,11,6.20
2020,05,05,06,12,6.20
2020,05,05,06,13,6.20
2020,05,05,06,14,6.20
2020,05,05,06,15,6.20
2020,05,05,06,16,6.20
2020,05,05,06,17,6.20
2020,05,05,06,18,6.20
2020,05,05,06,19,6.20
2020,05,05,06,20,6.20
2020,05,05,06,21,6.20
2020,05,05,06,22,6.20
2020,05,05,06,23,6.20
2020,05,05,06,24,6.20
2020,05,05,06,25,6.20
2020,05,05,06,26,6.30
2020,05,05,06,27,6.30
2020,05,05,06,28,6.30
2020,05,05,06,29,6.30
2020,05,05,06,30,6.30
2020,05,05,06,31,6.30
2020,05,05,06,32,6.40
2020,05,05,06,33,6.40
2020,05,05,06,34,6.40
2020,05,05,06,35,6.50
2020,05,05,06,36,6.50
2020,05,05,06,37,6.60
2020,05,05,06,38,6.60
2020,05,05,06,39,6.60
2020,05,05,06,40,6.60
2020,05,05,06,41,6.60
2020,05,05,06,42,6.60
2020,05,05,06,43,6.70
2020,05,05,06,44,6.70
2020,05,05,06,45,6.70
2020,05,05,06,46,6.70
2020,05,05,06,47,6.70
2020,05,05,06,48,6.80
2020,05,05,06,49,6.80
2020,05,05,06,50,6.80
2020,05,05,06,51,6.80
2020,05,05,06,52,6.90
2020,05,05,06,53,6.90
2020,05,05,06,54,7.00
2020,05,05,06,55,7.10
2020,05,05,06,56,7.10
2020,05,05,06,57,7.10
2020,05,05,06,58,7.20
2020,05,05,06,59,7.20
2020,05,05,07,00,7.30
2020,05,05,07,01,7.30
2020,05,05,07,02,7.30
2020,05,05,07,03,7.40
2020,05,05,07,04,7.40
2020,05,05,07,05,7.50
2020,05,05,07,06,7.60
2020,05,05,07,07,7.60
2020,05,05,07,08,7.60
2020,05,05,07,09,7.70
2020,05,05,07,10,7.70
2020,05,05,07,11,7.80
2020,05,05,07,12,7.80
2020,05,05,07,13,7.80
2020,05,05,07,14,7.80
2020,05,05,07,15,7.90
2020,05,05,07,16,7.90
2020,05,05,07,17,7.90
2020,05,05,07,18,8.00
2020,05,05,07,19,8.00
2020,05,05,07,20,8.10
2020,05,05,07,21,8.10
2020,05,05,07,22,8.10
2020,05,05,07,23,8.20
2020,05,05,07,24,8.20
2020,05,05,07,25,8.20
2020,05,05,07,26,8.30
2020,05,05,07,27,8.30
2020,05,05,07,28,8.30
2020,05,05,07,29,8.40
2020,05,05,07,30,8.40
2020,05,05,07,31,8.40
2020,05,05,07,32,8.40
2020,05,05,07,33,8.40
2020,05,05,07,34,8.40
2020,05,05,07,35,8.50
2020,05,05,07,36,8.50
2020,05,05,07,37,8.60
2020,05,05,07,38,8.60
2020,05,05,07,39,8.60
2020,05,05,07,40,8.60
2020,05,05,07,41,8.70
2020,05,05,07,42,8.70
2020,05,05,07,43,8.70
2020,05,05,07,44,8.70
2020,05,05,07,45,8.80
2020,05,05,07,46,8.80
2020,05,05,07,47,8.80
2020,05,05,07,48,8.90
2020,05,05,07,49,8.90
2020,05,05,07,50,9.00
2020,05,05,07,51,9.00
2020,05,05,07,52,9.10
2020,05,05,07,53,9.10
2020,05,05,07,54,9.10
2020,05,05,07,55,9.20
2020,05,05,07,56,9.20
2020,05,05,07,57,9.30
2020,05,05,07,58,9.30
2020,05,05,07,59,9.40
2020,05,05,08,00,9.40
2020,05,05,08,01,9.50
2020,05,05,08,02,9.60
2020,05,05,08,03,9.60
2020,05,05,08,04,9.70
2020,05,05,08,05,9.80
2020,05,05,08,06,9.90
2020,05,05,08,07,10.00
2020,05,05,08,08,10.10
2020,05,05,08,09,10.20
2020,05,05,08,10,10.30
2020,05,05,08,11,10.40
2020,05,05,08,12,10.50
2020,05,05,08,13,10.50
2020,05,05,08,14,10.60
2020,05,05,08,15,10.70
2020,05,05,08,16,10.80
2020,05,05,08,17,10.80
2020,05,05,08,18,10.90
2020,05,05,08,19,11.00
2020,05,05,08,20,11.00
2020,05,05,08,21,11.10
2020,05,05,08,22,11.10
2020,05,05,08,23,11.20
2020,05,05,08,24,11.20
2020,05,05,08,25,11.30
2020,05,05,08,26,11.30
2020,05,05,08,27,11.30
2020,05,05,08,28,11.30
2020,05,05,08,29,11.40
2020,05,05,08,30,11.40
2020,05,05,08,31,11.50
2020,05,05,08,32,11.60
2020,05,05,08,33,11.70
2020,05,05,08,34,11.70
2020,05,05,08,35,11.80
2020,05,05,08,36,11.80
2020,05,05,08,37,11.80
2020,05,05,08,38,11.80
2020,05,05,08,39,11.80
2020,05,05,08,40,11.70
2020,05,05,08,41,11.70
2020,05,05,08,42,11.70
2020,05,05,08,43,11.70
2020,05,05,08,44,11.70
2020,05,05,08,45,11.70
2020,05,05,08,46,11.70
2020,05,05,08,47,11.70
2020,05,05,08,48,11.80
2020,05,05,08,49,11.80
2020,05,05,08,50,11.80
2020,05,05,08,51,11.80
2020,05,05,08,52,11.80
2020,05,05,08,53,11.80
2020,05,05,08,54,11.80
2020,05,05,08,55,11.70
2020,05,05,08,56,11.70
2020,05,05,08,57,11.70
2020,05,05,08,58,11.70
2020,05,05,08,59,11.70
2020,05,05,09,00,11.70
2020,05,05,09,01,11.70
2020,05,05,09,02,11.70
2020,05,05,09,03,11.70
2020,05,05,09,04,11.70
2020,05,05,09,05,11.80
2020,05,05,09,06,11.80
2020,05,05,09,07,11.90
2020,05,05,09,08,12.00
2020,05,05,09,09,12.10
2020,05,05,09,10,12.10
2020,05,05,09,11,12.10
2020,05,05,09,12,12.20
2020,05,05,09,13,12.20
2020,05,05,09,14,12.20
2020,05,05,09,15,12.30
2020,05,05,09,16,12.20
2020,05,05,09,17,12.20
2020,05,05,09,18,12.20
2020,05,05,09,19,12.20
2020,05,05,09,20,12.20
2020,05,05,09,21,12.30
2020,05,05,09,22,12.30
2020,05,05,09,23,12.40
2020,05,05,09,24,12.40
2020,05,05,09,25,12.40
2020,05,05,09,26,12.40
2020,05,05,09,27,12.40
2020,05,05,09,28,12.40
2020,05,05,09,29,12.30
2020,05,05,09,30,12.40
2020,05,05,09,31,12.40
2020,05,05,09,32,12.40
2020,05,05,09,33,12.40
2020,05,05,09,34,12.50
2020,05,05,09,35,12.50
2020,05,05,09,36,12.50
2020,05,05,09,37,12.60
2020,05,05,09,38,12.60
2020,05,05,09,39,12.60
2020,05,05,09,40,12.60
2020,05,05,09,41,12.60
2020,05,05,09,42,12.60
2020,05,05,09,43,12.60
2020,05,05,09,44,12.60
2020,05,05,09,45,12.70
2020,05,05,09,46,12.70
2020,05,05,09,47,12.60
2020,05,05,09,48,12.50
2020,05,05,09,49,12.40
2020,05,05,09,50,12.40
2020,05,05,09,51,12.40
2020,05,05,09,52,12.40
2020,05,05,09,53,12.40
2020,05,05,09,54,12.40
2020,05,05,09,55,12.40
2020,05,05,09,56,12.50
2020,05,05,09,57,12.50
2020,05,05,09,58,12.60
2020,05,05,09,59,12.70
2020,05,05,10,00,12.70
2020,05,05,10,01,12.70
2020,05,05,10,02,12.70
2020,05,05,10,03,12.70
2020,05,05,10,04,12.80
2020,05,05,10,05,12.80
2020,05,05,10,06,12.80
2020,05,05,10,07,12.80
2020,05,05,10,08,12.80
2020,05,05,10,09,12.90
2020,05,05,10,10,12.90
2020,05,05,10,11,13.00
2020,05,05,10,12,13.10
2020,05,05,10,13,13.00
2020,05,05,10,14,13.00
2020,05,05,10,15,13.00
2020,05,05,10,16,13.10
2020,05,05,10,17,13.10
2020,05,05,10,18,13.10
2020,05,05,10,19,13.10
2020,05,05,10,20,13.20
2020,05,05,10,21,13.20
2020,05,05,10,22,13.30
2020,05,05,10,23,13.30
2020,05,05,10,24,13.30
2020,05,05,10,25,13.30
2020,05,05,10,26,13.40
2020,05,05,10,27,13.40
2020,05,05,10,28,13.40
2020,05,05,10,29,13.40
2020,05,05,10,30,13.30
2020,05,05,10,31,13.40
2020,05,05,10,32,13.40
2020,05,05,10,33,13.50
2020,05,05,10,34,13.50
2020,05,05,10,35,13.60
2020,05,05,10,36,13.60
2020,05,05,10,37,13.70
2020,05,05,10,38,13.70
2020,05,05,10,39,13.80
2020,05,05,10,40,13.80
2020,05,05,10,41,13.80
2020,05,05,10,42,13.70
2020,05,05,10,43,13.70
2020,05,05,10,44,13.70
2020,05,05,10,45,13.80
2020,05,05,10,46,13.80
2020,05,05,10,47,13.80
2020,05,05,10,48,13.80
2020,05,05,10,49,13.80
2020,05,05,10,50,13.80
2020,05,05,10,51,13.90
2020,05,05,10,52,13.90
2020,05,05,10,53,13.90
2020,05,05,10,54,13.90
2020,05,05,10,55,13.90
2020,05,05,10,56,13.90
2020,05,05,10,57,13.90
2020,05,05,10,58,13.90
2020,05,05,10,59,13.90
2020,05,05,11,00,13.90
2020,05,05,11,01,13.90
2020,05,05,11,02,14.00
2020,05,05,11,03,14.10
2020,05,05,11,04,14.00
2020,05,05,11,05,14.00
2020,05,05,11,06,14.00
2020,05,05,11,07,14.00
2020,05,05,11,08,14.00
2020,05,05,11,09,14.10
2020,05,05,11,10,14.10
2020,05,05,11,11,14.10
2020,05,05,11,12,14.10
2020,05,05,11,13,14.10
2020,05,05,11,14,14.00
2020,05,05,11,15,14.00
2020,05,05,11,16,14.00
2020,05,05,11,17,14.00
2020,05,05,11,18,14.00
2020,05,05,11,19,14.10
2020,05,05,11,20,14.10
2020,05,05,11,21,14.10
2020,05,05,11,22,14.20
2020,05,05,11,23,14.30
2020,05,05,11,24,14.30
2020,05,05,11,25,14.30
2020,05,05,11,26,14.40
2020,05,05,11,27,14.40
2020,05,05,11,28,14.50
2020,05,05,11,29,14.50
2020,05,05,11,30,14.60
2020,05,05,11,31,14.60
2020,05,05,11,32,14.70
2020,05,05,11,33,14.70
2020,05,05,11,34,14.80
2020,05,05,11,35,14.80
2020,05,05,11,36,14.80
2020,05,05,11,37,14.80
2020,05,05,11,38,14.80
2020,05,05,11,39,14.80
2020,05,05,11,40,14.80
2020,05,05,11,41,14.80
2020,05,05,11,42,14.80
2020,05,05,11,43,14.80
2020,05,05,11,44,14.80
2020,05,05,11,45,14.80
2020,05,05,11,46,14.80
2020,05,05,11,47,14.90
2020,05,05,11,48,14.90
2020,05,05,11,49,14.90
2020,05,05,11,50,14.90
2020,05,05,11,51,14.90
2020,05,05,11,52,14.90
2020,05,05,11,53,15.00
2020,05,05,11,54,15.00
2020,05,05,11,55,15.10
2020,05,05,11,56,15.10
2020,05,05,11,57,15.10
2020,05,05,11,58,15.10
2020,05,05,11,59,15.00
2020,05,05,12,00,14.90
2020,05,05,12,01,15.00
2020,05,05,12,02,15.10
2020,05,05,12,03,15.10
2020,05,05,12,04,15.20
2020,05,05,12,05,15.20
2020,05,05,12,06,15.20
2020,05,05,12,07,15.20
2020,05,05,12,08,15.20
2020,05,05,12,09,15.20
2020,05,05,12,10,15.20
2020,05,05,12,11,15.20
2020,05,05,12,12,15.20
2020,05,05,12,13,15.20
2020,05,05,12,14,15.20
2020,05,05,12,15,15.10
2020,05,05,12,16,15.10
2020,05,05,12,17,15.10
2020,05,05,12,18,15.10
2020,05,05,12,19,15.10
2020,05,05,12,20,15.20
2020,05,05,12,21,15.20
2020,05,05,12,22,15.20
2020,05,05,12,23,15.20
2020,05,05,12,24,15.20
2020,05,05,12,25,15.10
2020,05,05,12,26,15.20
2020,05,05,12,27,15.30
2020,05,05,12,28,15.40
2020,05,05,12,29,15.40
2020,05,05,12,30,15.50
2020,05,05,12,31,15.60
2020,05,05,12,32,15.60
2020,05,05,12,33,15.50
2020,05,05,12,34,15.30
2020,05,05,12,35,15.30
2020,05,05,12,36,15.30
2020,05,05,12,37,15.30
2020,05,05,12,38,15.20
2020,05,05,12,39,15.20
2020,05,05,12,40,15.20
2020,05,05,12,41,15.30
2020,05,05,12,42,15.30
2020,05,05,12,43,15.30
2020,05,05,12,44,15.40
2020,05,05,12,45,15.50
2020,05,05,12,46,15.60
2020,05,05,12,47,15.70
2020,05,05,12,48,15.70
2020,05,05,12,49,15.70
2020,05,05,12,50,15.70
2020,05,05,12,51,15.70
2020,05,05,12,52,15.80
2020,05,05,12,53,15.80
2020,05,05,12,54,15.70
2020,05,05,12,55,15.70
2020,05,05,12,56,15.70
2020,05,05,12,57,15.70
2020,05,05,12,58,15.70
2020,05,05,12,59,15.70
2020,05,05,13,00,15.80
2020,05,05,13,01,15.70
2020,05,05,13,02,15.70
2020,05,05,13,03,15.70
2020,05,05,13,04,15.70
2020,05,05,13,05,15.70
2020,05,05,13,06,15.80
2020,05,05,13,07,15.90
2020,05,05,13,08,15.90
2020,05,05,13,09,16.00
2020,05,05,13,10,16.10
2020,05,05,13,11,16.10
2020,05,05,13,12,16.10
2020,05,05,13,13,16.10
2020,05,05,13,14,16.20
2020,05,05,13,15,16.20
2020,05,05,13,16,16.30
2020,05,05,13,17,16.40
2020,05,05,13,18,16.40
2020,05,05,13,19,16.40
2020,05,05,13,20,16.50
2020,05,05,13,21,16.50
2020,05,05,13,22,16.60
2020,05,05,13,23,16.60
2020,05,05,13,24,16.70
2020,05,05,13,25,16.80
2020,05,05,13,26,16.80
2020,05,05,13,27,16.80
2020,05,05,13,28,16.80
2020,05,05,13,29,16.80
2020,05,05,13,30,16.70
2020,05,05,13,31,16.80
2020,05,05,13,32,16.80
2020,05,05,13,33,16.90
2020,05,05,13,34,16.90
2020,05,05,13,35,16.90
2020,05,05,13,36,16.90
2020,05,05,13,37,17.00
2020,05,05,13,38,17.00
2020,05,05,13,39,17.10
2020,05,05,13,40,17.10
2020,05,05,13,41,17.10
2020,05,05,13,42,17.10
2020,05,05,13,43,17.20
2020,05,05,13,44,17.20
2020,05,05,13,45,17.10
2020,05,05,13,46,17.10
2020,05,05,13,47,17.10
2020,05,05,13,48,17.00
2020,05,05,13,49,17.00
2020,05,05,13,50,17.00
2020,05,05,13,51,17.00
2020,05,05,13,52,17.00
2020,05,05,13,53,17.00
2020,05,05,13,54,17.00
2020,05,05,13,55,17.00
2020,05,05,13,56,17.10
2020,05,05,13,57,17.10
2020,05,05,13,58,17.00
2020,05,05,13,59,16.90
2020,05,05,14,00,16.90
2020,05,05,14,01,16.90
2020,05,05,14,02,16.80
2020,05,05,14,03,16.80
2020,05,05,14,04,16.90
2020,05,05,14,05,16.90
2020,05,05,14,06,16.90
2020,05,05,14,07,17.00
2020,05,05,14,08,17.00
2020,05,05,14,09,17.10
2020,05,05,14,10,17.10
2020,05,05,14,11,17.10
2020,05,05,14,12,17.20
2020,05,05,14,13,17.20
2020,05,05,14,14,17.10
2020,05,05,14,15,17.20
2020,05,05,14,16,17.20
2020,05,05,14,17,17.20
2020,05,05,14,18,17.20
2020,05,05,14,19,17.20
2020,05,05,14,20,17.20
2020,05,05,14,21,17.20
2020,05,05,14,22,17.20
2020,05,05,14,23,17.20
2020,05,05,14,24,17.20
2020,05,05,14,25,17.30
2020,05,05,14,26,17.30
2020,05,05,14,27,17.30
2020,05,05,14,28,17.30
2020,05,05,14,29,17.40
2020,05,05,14,30,17.30
2020,05,05,14,31,17.20
2020,05,05,14,32,17.10
2020,05,05,14,33,17.00
2020,05,05,14,34,17.00
2020,05,05,14,35,17.10
2020,05,05,14,36,17.20
2020,05,05,14,37,17.20
2020,05,05,14,38,17.20
2020,05,05,14,39,17.30
2020,05,05,14,40,17.30
2020,05,05,14,41,17.30
2020,05,05,14,42,17.30
2020,05,05,14,43,17.30
2020,05,05,14,44,17.30
2020,05,05,14,45,17.30
2020,05,05,14,46,17.30
2020,05,05,14,47,17.30
2020,05,05,14,48,17.30
2020,05,05,14,49,17.30
2020,05,05,14,50,17.20
2020,05,05,14,51,17.20
2020,05,05,14,52,17.20
2020,05,05,14,53,17.20
2020,05,05,14,54,17.10
2020,05,05,14,55,17.10
2020,05,05,14,56,17.10
2020,05,05,14,57,17.10
2020,05,05,14,58,17.20
2020,05,05,14,59,17.20
2020,05,05,15,00,17.30
2020,05,05,15,01,17.30
2020,05,05,15,02,17.30
2020,05,05,15,03,17.30
2020,05,05,15,04,17.30
2020,05,05,15,05,17.30
2020,05,05,15,06,17.30
2020,05,05,15,07,17.30
2020,05,05,15,08,17.40
2020,05,05,15,09,17.40
2020,05,05,15,10,17.40
2020,05,05,15,11,17.50
2020,05,05,15,12,17.50
2020,05,05,15,13,17.50
2020,05,05,15,14,17.50
2020,05,05,15,15,17.50
2020,05,05,15,16,17.60
2020,05,05,15,17,17.60
2020,05,05,15,18,17.60
2020,05,05,15,19,17.60
2020,05,05,15,20,17.60
2020,05,05,15,21,17.60
2020,05,05,15,22,17.70
2020,05,05,15,23,17.70
2020,05,05,15,24,17.80
2020,05,05,15,25,17.90
2020,05,05,15,26,18.00
2020,05,05,15,27,18.00
2020,05,05,15,28,18.10
2020,05,05,15,29,18.10
2020,05,05,15,30,18.10
2020,05,05,15,31,18.00
2020,05,05,15,32,18.00
2020,05,05,15,33,18.00
2020,05,05,15,34,18.10
2020,05,05,15,35,18.10
2020,05,05,15,36,18.10
2020,05,05,15,37,18.10
2020,05,05,15,38,18.10
2020,05,05,15,39,18.10
2020,05,05,15,40,18.10
2020,05,05,15,41,18.20
2020,05,05,15,42,18.20
2020,05,05,15,43,18.20
2020,05,05,15,44,18.20
2020,05,05,15,45,18.20
2020,05,05,15,46,18.20
2020,05,05,15,47,18.20
2020,05,05,15,48,18.20
2020,05,05,15,49,18.30
2020,05,05,15,50,18.30
2020,05,05,15,51,18.40
2020,05,05,15,52,18.40
2020,05,05,15,53,18.50
2020,05,05,15,54,18.60
2020,05,05,15,55,18.60
2020,05,05,15,56,18.60
2020,05,05,15,57,18.50
2020,05,05,15,58,18.50
2020,05,05,15,59,18.40
2020,05,05,16,00,18.40
2020,05,05,16,01,18.50
2020,05,05,16,02,18.50
2020,05,05,16,03,18.50
2020,05,05,16,04,18.50
2020,05,05,16,05,18.50
2020,05,05,16,06,18.60
2020,05,05,16,07,18.60
2020,05,05,16,08,18.70
2020,05,05,16,09,18.80
2020,05,05,16,10,18.80
2020,05,05,16,11,18.70
2020,05,05,16,12,18.70
2020,05,05,16,13,18.60
2020,05,05,16,14,18.60
2020,05,05,16,15,18.60
2020,05,05,16,16,18.60
2020,05,05,16,17,18.60
2020,05,05,16,18,18.60
2020,05,05,16,19,18.70
2020,05,05,16,20,18.80
2020,05,05,16,21,18.80
2020,05,05,16,22,18.80
2020,05,05,16,23,18.80
2020,05,05,16,24,18.80
2020,05,05,16,25,18.80
2020,05,05,16,26,18.90
2020,05,05,16,27,18.90
2020,05,05,16,28,19.00
2020,05,05,16,29,19.00
2020,05,05,16,30,19.00
2020,05,05,16,31,19.00
2020,05,05,16,32,19.00
2020,05,05,16,33,18.90
2020,05,05,16,34,18.90
2020,05,05,16,35,18.90
2020,05,05,16,36,18.90
2020,05,05,16,37,18.90
2020,05,05,16,38,18.90
2020,05,05,16,39,19.00
2020,05,05,16,40,19.00
2020,05,05,16,41,19.10
2020,05,05,16,42,19.00
2020,05,05,16,43,19.00
2020,05,05,16,44,19.00
2020,05,05,16,45,19.00
2020,05,05,16,46,19.00
2020,05,05,16,47,19.10
2020,05,05,16,48,19.10
2020,05,05,16,49,19.10
2020,05,05,16,50,19.20
2020,05,05,16,51,19.20
2020,05,05,16,52,19.20
2020,05,05,16,53,19.20
2020,05,05,16,54,19.20
2020,05,05,16,55,19.30
2020,05,05,16,56,19.30
2020,05,05,16,57,19.30
2020,05,05,16,58,19.30
2020,05,05,16,59,19.40
2020,05,05,17,00,19.50
2020,05,05,17,01,19.50
2020,05,05,17,02,19.60
2020,05,05,17,03,19.60
2020,05,05,17,04,19.60
2020,05,05,17,05,19.70
2020,05,05,17,06,19.70
2020,05,05,17,07,19.70
2020,05,05,17,08,19.70
2020,05,05,17,09,19.70
2020,05,05,17,10,19.80
2020,05,05,17,11,19.80
2020,05,05,17,12,19.80
2020,05,05,17,13,19.80
2020,05,05,17,14,19.80
2020,05,05,17,15,19.70
2020,05,05,17,16,19.70
2020,05,05,17,17,19.70
2020,05,05,17,18,19.60
2020,05,05,17,19,19.60
2020,05,05,17,20,19.60
2020,05,05,17,21,19.60
2020,05,05,17,22,19.60
2020,05,05,17,23,19.60
2020,05,05,17,24,19.50
2020,05,05,17,25,19.40
2020,05,05,17,26,19.30
2020,05,05,17,27,19.20
2020,05,05,17,28,19.00
2020,05,05,17,29,18.90
2020,05,05,17,30,18.80
2020,05,05,17,31,18.80
2020,05,05,17,32,18.70
2020,05,05,17,33,18.70
2020,05,05,17,34,18.70
2020,05,05,17,35,18.70
2020,05,05,17,36,18.60
2020,05,05,17,37,18.50
2020,05,05,17,38,18.40
2020,05,05,17,39,18.30